Location: Brasstown Bald
(34.8693°N, 83.8103°W)
Time: 04:40:40
(UTC-04:00)

Amateur Radio Satellites - All Passes

Search period start: 29 July 2014 04:10
Search period end: 30 July 2014 04:10
Location: Brasstown Bald, 34.8693°N, 83.8103°W

Satellite Date Start Highest point End Downlink Frequencies (MHz)
Time Altitude Azimuth
PANSAT 29 Jul 04:12:02 04:12:19 10° 157° (SSE) 04:12:36 not established
Gurwin Techsat 1B 29 Jul 04:22:37 04:27:56 72° 102° (ESE) 04:33:13 435.225 FM
Oscar 19 29 Jul 04:32:58 04:36:09 17° 295° (WNW) 04:39:20 437.125 CW, 437.150 USB
AO-7 29 Jul 04:48:12 04:54:33 24° 95° (E) 05:00:50 29.400 - 29.500 MHz
AO-Echo 29 Jul 04:48:58 04:52:49 23° 293° (WNW) 04:56:35 ?
OPAL 29 Jul 05:00:01 05:04:56 73° 256° (WSW) 05:09:53 ?
Uosat F 29 Jul 05:06:49 05:11:04 27° 97° (E) 05:15:16 435.120 FM
JAS-1B 29 Jul 05:19:35 05:28:08 44° 295° (WNW) 05:35:32 435.800 - 435.900 CW/SSB
ITAMSAT 1 29 Jul 05:23:12 05:25:17 12° 297° (WNW) 05:27:22 435.822 SSB
KITSAT 1 29 Jul 05:26:43 05:31:59 19° 102° (ESE) 05:37:14 435.175 FM
TMSAT-1 29 Jul 05:38:40 05:43:11 30° 291° (WNW) 05:47:41 436.925 FM
PANSAT 29 Jul 05:48:45 05:51:55 24° 169° (SSE) 05:55:05 not established
Gurwin Techsat 1B 29 Jul 06:05:00 06:07:14 13° 297° (WNW) 06:09:27 435.225 FM
AO-7 29 Jul 06:39:34 06:47:46 65° 291° (WNW) 06:55:55 29.400 - 29.500 MHz
Uosat F 29 Jul 06:45:30 06:49:45 29° 291° (WNW) 06:53:59 435.120 FM
ISS 29 Jul 06:59:35 07:02:48 40° 38° (NE) 07:05:59 145.800 FM
MaSat-1 29 Jul 07:01:31 07:05:59 27° 58° (ENE) 07:10:14 437.345 MHz
JAS-2 29 Jul 07:04:30 07:09:18 27° 94° (E) 07:13:44 435.800 - 435.900 CW/SSB, 435.910 FM
KITSAT 1 29 Jul 07:18:22 07:26:27 77° 298° (WNW) 07:34:36 435.175 FM
STRAND 1 29 Jul 07:23:08 07:28:12 63° 74° (ENE) 07:33:17 ?
Hamsat 29 Jul 07:27:51 07:32:09 69° 101° (E) 07:36:28 145.90 MHz
PANSAT 29 Jul 07:28:15 07:31:42 31° 181° (S) 07:35:09 not established
SO-67 29 Jul 07:51:30 07:53:25 14° 94° (E) 07:55:19 435.3500 MHz FM
Saudisat 1A 29 Jul 08:03:59 08:08:21 66° 117° (ESE) 08:12:44 436.775 MHz
AO-7 29 Jul 08:36:13 08:38:56 12° 310° (NW) 08:41:39 29.400 - 29.500 MHz
ISS 29 Jul 08:37:09 08:39:15 16° 232° (SW) 08:41:20 145.800 FM
MaSat-1 29 Jul 08:38:39 08:43:21 34° 255° (WSW) 08:47:43 437.345 MHz
JAS-2 29 Jul 08:49:19 08:54:24 32° 293° (WNW) 08:59:05 435.800 - 435.900 CW/SSB, 435.910 FM
STRAND 1 29 Jul 09:05:40 09:07:45 12° 268° (W) 09:09:50 ?
PANSAT 29 Jul 09:08:30 09:11:28 21° 194° (SSW) 09:14:25 not established
HO-68 29 Jul 09:12:37 09:16:03 14° 92° (E) 09:19:28 435.675 MHz FM
KITSAT 1 29 Jul 09:18:12 09:23:14 17° 319° (NW) 09:28:16 435.175 FM
SO-67 29 Jul 09:23:36 09:26:28 24° 287° (WNW) 09:29:19 435.3500 MHz FM
Sapphire 29 Jul 09:35:17 09:37:55 14° 48° (NE) 09:40:32 437.095 MHz 1200 baud AX-25 AFSK
UKube-1 29 Jul 09:46:01 09:47:27 11° 93° (E) 09:48:54 145.840 MHz, 145.915 MHz
Saudisat 1A 29 Jul 09:46:17 09:48:22 13° 313° (NW) 09:50:26 436.775 MHz
PCSat 29 Jul 10:07:17 10:11:50 26° 55° (NE) 10:16:21 145.825 MHz
Oscar 11 29 Jul 10:29:20 10:32:30 20° 95° (E) 10:35:39 145.825 FM, Beacon 2401.500 USB
FUNcube-1 29 Jul 10:52:54 10:54:20 12° 93° (E) 10:55:46 145.950 - 145.970 MHz USB
HO-68 29 Jul 10:57:15 11:04:26 85° 287° (WNW) 11:11:34 435.675 MHz FM
Sapphire 29 Jul 11:16:34 11:22:01 84° 245° (WSW) 11:27:25 437.095 MHz 1200 baud AX-25 AFSK
UKube-1 29 Jul 11:19:42 11:23:54 50° 286° (WNW) 11:28:05 145.840 MHz, 145.915 MHz
PCSat 29 Jul 11:50:20 11:55:17 37° 251° (WSW) 12:00:13 145.825 MHz
Oscar 11 29 Jul 12:04:54 12:08:40 29° 289° (WNW) 12:12:25 145.825 FM, Beacon 2401.500 USB
FUNcube-1 29 Jul 12:26:56 12:30:56 45° 286° (WNW) 12:34:58 145.950 - 145.970 MHz USB
HO-68 29 Jul 12:47:42 12:51:03 14° 303° (WNW) 12:54:24 435.675 MHz FM
SO-50 29 Jul 12:50:24 12:54:44 55° 116° (ESE) 12:59:09 436.795 FM
RS-15 29 Jul 12:57:50 13:07:30 35° 106° (ESE) 13:16:53 29.354 - 29.394 USB, Beacon 29.352 USB
Oscar 16 29 Jul 12:59:03 13:00:36 11° 62° (ENE) 13:02:09 437.025 USB, Beacon 2401.1428
Uribyol 2 29 Jul 13:39:06 13:41:34 14° 63° (ENE) 13:44:02 436.500 FM
AO-27 29 Jul 13:39:14 13:41:34 13° 63° (ENE) 13:43:53 436.795 MHz FM
Oscar 19 29 Jul 14:05:51 14:10:48 53° 73° (ENE) 14:15:46 437.125 CW, 437.150 USB
JAS-1B 29 Jul 14:08:39 14:15:53 29° 60° (ENE) 14:23:41 435.800 - 435.900 CW/SSB
AO-Echo 29 Jul 14:18:57 14:23:40 34° 70° (ENE) 14:28:24 ?
SO-50 29 Jul 14:33:01 14:35:39 15° 313° (NW) 14:38:18 436.795 FM
Oscar 16 29 Jul 14:34:09 14:39:15 76° 258° (WSW) 14:44:23 437.025 USB, Beacon 2401.1428
UOSAT-12 29 Jul 14:48:39 14:53:09 64° 116° (ESE) 14:57:47 437.025 FM, 437.400 FM
ITAMSAT 1 29 Jul 14:55:52 15:01:04 76° 75° (ENE) 15:06:17 435.822 SSB
RS-15 29 Jul 15:08:17 15:19:13 59° 305° (NW) 15:29:59 29.354 - 29.394 USB, Beacon 29.352 USB
AO-27 29 Jul 15:15:15 15:20:26 69° 258° (WSW) 15:25:39 436.795 MHz FM
Uribyol 2 29 Jul 15:15:17 15:20:26 65° 258° (WSW) 15:25:36 436.500 FM
KITSAT 1 29 Jul 15:15:55 15:22:53 31° 50° (NE) 15:29:48 435.175 FM
TMSAT-1 29 Jul 15:16:21 15:21:02 33° 70° (ENE) 15:25:43 436.925 FM
Gurwin Techsat 1B 29 Jul 15:40:20 15:45:38 81° 76° (ENE) 15:50:57 435.225 FM
AO-7 29 Jul 15:44:00 15:50:31 26° 59° (ENE) 15:57:02 29.400 - 29.500 MHz
Oscar 19 29 Jul 15:47:37 15:50:25 15° 267° (W) 15:53:13 437.125 CW, 437.150 USB
JAS-1B 29 Jul 15:56:47 16:05:23 69° 259° (WSW) 16:15:10 435.800 - 435.900 CW/SSB
AO-Echo 29 Jul 15:58:01 16:02:23 26° 265° (W) 16:06:47 ?
Uosat F 29 Jul 16:17:01 16:21:13 27° 69° (ENE) 16:25:26 435.120 FM
UOSAT-12 29 Jul 16:31:12 16:33:45 15° 314° (NW) 16:36:20 437.025 FM, 437.400 FM
Saudisat 1A 29 Jul 16:34:33 16:37:57 21° 51° (NE) 16:41:19 436.775 MHz
ITAMSAT 1 29 Jul 16:40:31 16:41:02 10° 269° (W) 16:41:33 435.822 SSB
TMSAT-1 29 Jul 16:56:34 17:00:55 26° 264° (W) 17:05:18 436.925 FM
KITSAT 1 29 Jul 17:10:47 17:18:38 57° 249° (WSW) 17:26:26 435.175 FM
OPAL 29 Jul 17:13:12 17:17:58 39° 101° (E) 17:22:45 ?
JAS-2 29 Jul 17:15:06 17:17:59 13° 59° (ENE) 17:20:48 435.800 - 435.900 CW/SSB, 435.910 FM
RS-15 29 Jul 17:27:57 17:34:35 17° 332° (NNW) 17:41:13 29.354 - 29.394 USB, Beacon 29.352 USB
AO-7 29 Jul 17:34:21 17:42:37 65° 256° (WSW) 17:50:57 29.400 - 29.500 MHz
JAS-1B 29 Jul 17:55:00 17:57:33 11° 277° (W) 18:00:11 435.800 - 435.900 CW/SSB
Uosat F 29 Jul 17:55:32 17:59:53 29° 263° (W) 18:04:14 435.120 FM
Saudisat 1A 29 Jul 18:13:36 18:17:35 34° 247° (WSW) 18:21:32 436.775 MHz
Hamsat 29 Jul 18:18:20 18:22:00 31° 72° (ENE) 18:25:42 145.90 MHz
OPAL 29 Jul 18:52:45 18:56:34 22° 295° (WNW) 19:00:24 ?
JAS-2 29 Jul 18:54:05 19:01:53 72° 74° (ENE) 19:09:15 435.800 - 435.900 CW/SSB, 435.910 FM
STRAND 1 29 Jul 19:37:44 19:42:04 28° 97° (E) 19:46:22 ?
RS-15 29 Jul 19:50:14 19:53:54 12° 11° (NNE) 19:57:35 29.354 - 29.394 USB, Beacon 29.352 USB
SO-67 29 Jul 19:52:49 19:56:12 57° 76° (ENE) 19:59:37 435.3500 MHz FM
Hamsat 29 Jul 19:55:16 19:58:00 17° 266° (W) 20:00:46 145.90 MHz
JAS-2 29 Jul 20:41:49 20:47:13 20° 267° (W) 20:52:30 435.800 - 435.900 CW/SSB, 435.910 FM
MaSat-1 29 Jul 20:50:40 20:53:10 16° 100° (E) 20:55:53 437.345 MHz
STRAND 1 29 Jul 21:16:49 21:21:10 29° 291° (WNW) 21:25:29 ?
HO-68 29 Jul 21:21:50 21:28:43 52° 69° (ENE) 21:35:37 435.675 MHz FM
Oscar 11 29 Jul 21:23:36 21:24:36 11° 65° (ENE) 21:25:35 145.825 FM, Beacon 2401.500 USB
SO-50 29 Jul 21:25:33 21:29:20 23° 51° (NE) 21:33:08 436.795 FM
RS-15 29 Jul 22:01:39 22:11:20 33° 45° (NE) 22:21:15 29.354 - 29.394 USB, Beacon 29.352 USB
UKube-1 29 Jul 22:11:32 22:15:54 90° 41° (NE) 22:20:18 145.840 MHz, 145.915 MHz
MaSat-1 29 Jul 22:26:20 22:30:00 34° 300° (WNW) 22:34:14 437.345 MHz
Oscar 11 29 Jul 22:56:01 23:00:15 57° 260° (W) 23:04:30 145.825 FM, Beacon 2401.500 USB
SO-50 29 Jul 23:05:34 23:09:59 38° 246° (WSW) 23:14:27 436.795 FM
HO-68 29 Jul 23:10:55 23:16:38 25° 264° (W) 23:22:22 435.675 MHz FM
FUNcube-1 29 Jul 23:19:44 23:24:05 90° 247° (WSW) 23:28:21 145.950 - 145.970 MHz USB
UOSAT-12 29 Jul 23:21:58 23:25:48 24° 51° (NE) 23:29:34 437.025 FM, 437.400 FM
ISS 29 Jul 23:39:16 23:42:35 87° 137° (SE) 23:45:56 145.800 FM
Sapphire 30 Jul 00:13:23 00:17:16 20° 106° (ESE) 00:21:10 437.095 MHz 1200 baud AX-25 AFSK
RS-15 30 Jul 00:13:30 00:24:29 70° 246° (WSW) 00:35:56 29.354 - 29.394 USB, Beacon 29.352 USB
PCSat 30 Jul 00:45:13 00:50:20 45° 111° (ESE) 00:55:29 145.825 MHz
UOSAT-12 30 Jul 01:01:44 01:06:00 35° 247° (WSW) 01:10:11 437.025 FM, 437.400 FM
ISS 30 Jul 01:18:06 01:19:42 13° 333° (NNW) 01:21:19 145.800 FM
Sapphire 30 Jul 01:55:09 02:00:18 45° 301° (WNW) 02:05:30 437.095 MHz 1200 baud AX-25 AFSK
Oscar 19 30 Jul 02:21:23 02:25:36 25° 96° (E) 02:29:48 437.125 CW, 437.150 USB
PCSat 30 Jul 02:29:45 02:33:56 22° 307° (NW) 02:38:09 145.825 MHz
AO-Echo 30 Jul 02:31:44 02:33:54 13° 91° (E) 02:36:02 ?
RS-15 30 Jul 02:31:57 02:34:52 11° 263° (W) 02:37:48 29.354 - 29.394 USB, Beacon 29.352 USB
Oscar 16 30 Jul 02:49:19 02:54:20 51° 100° (E) 02:59:21 437.025 USB, Beacon 2401.1428
ITAMSAT 1 30 Jul 03:12:35 03:17:18 35° 98° (E) 03:21:59 435.822 SSB
Uribyol 2 30 Jul 03:31:28 03:36:34 59° 101° (E) 03:41:38 436.500 FM
AO-27 30 Jul 03:31:48 03:36:54 57° 101° (E) 03:41:58 436.795 MHz FM
TMSAT-1 30 Jul 03:36:28 03:39:51 17° 93° (E) 03:43:12 436.925 FM
PANSAT 30 Jul 03:46:23 03:47:22 11° 158° (SSE) 03:48:20 not established
JAS-1B 30 Jul 03:48:05 03:56:57 53° 98° (E) 04:04:25 435.800 - 435.900 CW/SSB
Gurwin Techsat 1B 30 Jul 04:00:13 04:05:15 42° 99° (E) 04:10:15 435.225 FM
Oscar 19 30 Jul 04:00:20 04:04:54 33° 290° (WNW) 04:09:29 437.125 CW, 437.150 USB
